Location: Squirrel Cove
(50.1074°N, 124.9139°W)
Time: 03:40:49
(UTC-07:00)

PicSat - Visible Passes

Search period start: 22 May 2022 00:00
Search period end: 01 June 2022 00:00
Orbit: 455 x 466 km, 97.4° (Epoch: 21 May)

Date Brightness Start Highest point End Pass type
(mag) Time Alt. Az. Time Alt. Az. Time Alt. Az.
22 May ? 00:09:02 24° SW 00:10:07 30° W 00:13:12 10° NNW visible
22 May ? 22:04:49 10° ENE 22:05:50 11° ENE 22:06:50 10° NE visible
22 May ? 23:36:55 34° S 23:38:16 73° WSW 23:41:44 10° NNW visible
23 May ? 23:04:44 23° SE 23:06:28 45° ENE 23:09:47 10° N visible
24 May ? 00:38:35 13° WSW 00:39:41 15° W 00:41:42 10° NW visible
24 May ? 22:32:28 12° ESE 22:34:45 21° ENE 22:37:23 10° NNE visible
25 May ? 00:06:19 24° SW 00:07:33 32° W 00:10:41 10° NNW visible
25 May ? 22:02:32 10° ENE 22:03:05 10° ENE 22:03:38 10° NE visible
25 May ? 23:33:58 31° S 23:35:29 80° WSW 23:38:56 10° NNW visible
26 May ? 23:01:33 21° SE 23:03:28 41° ENE 23:06:45 10° N visible
27 May ? 00:35:23 13° WSW 00:36:38 16° W 00:38:48 10° NW visible
27 May ? 22:29:04 10° ESE 22:31:32 19° ENE 22:34:03 10° NNE visible
28 May ? 00:02:53 24° SW 00:04:17 35° W 00:07:28 10° NNW visible
28 May ? 23:30:19 28° SSE 23:32:00 88° WSW 23:35:27 10° NNW visible
29 May ? 22:57:41 18° SE 22:59:47 37° ENE 23:03:00 10° N visible
30 May ? 00:31:30 14° WSW 00:32:53 17° W 00:35:14 10° NW visible
30 May ? 22:25:17 10° ESE 22:27:38 18° ENE 22:30:00 10° NNE visible
30 May ? 23:58:47 24° SSW 00:00:19 39° W 00:03:35 10° NNW visible
31 May ? 23:25:59 26° SSE 23:27:49 82° ENE 23:31:17 10° NNW visible
